User: anonymous   Login
Location: Meanaryar
(48.4161°N, 4.7315°W)
Time: 10:24:42
(UTC+00:00)
Language:

Cosmos 2251 Rocket - Orbit

View from above orbital plane
View from above orbital plane
View from above satellite
View from above satellite

Ground track
Ground track

The orbit data is extracted from the following two-line orbital elements,

1 22676U 93036B   21209.76931988  .00000028  00000-0  19233-4 0  9991
2 22676  74.0441 313.5721 0019483 330.2604  29.7439 14.34043262470419
Epoch (UTC): 28 July 2021 18:27:49
Eccentricity: 0.0019483
inclination: 74.0441°
perigee height: 764 km
apogee height: 792 km
right ascension of ascending node: 313.5721°
argument of perigee: 330.2604°
revolutions per day: 14.34043262
mean anomaly at epoch: 29.7439°
orbit number at epoch: 47041

The dashed part of the orbit path shows where the satellite is in the earth's shadow,  

DLR